Regional Weather Roundup
Issued by NWS Goodland, KS

Home | Current Version | Previous Version | Text Only | Print | Product List | Glossary Off
Versions: 1 2 3 4 5 6 7 8 9 10 11 12 13 14 15 16 17 18 19 20 21 22 23 24 25 26 27 28 29 30 31 32 33 34 35 36 37 38 39 40 41 42 43 44 45 46 47 48 49 50

000
ASUS43 KGLD 272308
RWRGLD

GOODLAND FORECAST AREA HOURLY WEATHER ROUNDUP
NATIONAL WEATHER SERVICE GOODLAND KS
500 PM MDT SAT MAY 27 2017

...OFFICIAL OBSERVATIONS...

CITY           SKY/WX    TMP DP  RH WIND       PRES   REMARKS
GOODLAND KS    LGT RAIN  61  49  64 N20G26    30.08R
HILL CITY KS   CLOUDY    70  56  61 N17G23    29.97R
IMPERIAL NEB   PTSUNNY   62  50  64 N5        30.06R
MCCOOK NEB     CLOUDY    68  49  50 N10       30.00R
AKRON CO       CLOUDY    56  47  71 W9        30.13R
BURLINGTON CO  RAIN      53  49  86 NW17      30.16R
LIMON CO       CLOUDY    52  46  80 N14       30.16F
$$

...UNOFFICIAL OBSERVATIONS...

CITY           SKY/WX    TMP DP  RH WIND       PRES   REMARKS
LENORA KS        N/A     69  32  25 MISG        N/A
NORTON KS      MOSUNNY   68  50  52 NW13G18   29.98R
SHARON SPRINGS   N/A     66  49  54 NW14G24     N/A
TRENTON NEB      N/A     62  32  32 NW8         N/A
$$




USA.gov is the U.S. government's official web portal to all federal, state and local government web resources and services.